RYR5BM EPWR-EPSC

Flight info

Callsign RYR5BM
Flight time 0h 42m
Altitude 26000
Route XIDN1K XIDNA L617 ADVAB L619 DENKO L996 XERBI FORFE ZAWIK ZAWI1B
Aircraft B738/M-V/N

Departure

Time 2026-05-07 19:02
Airport Copernicus Wrocław Airport (EPWR)

Arrival

Time 2026-05-07 19:44
Airport Solidarity Szczecin–Goleniów Airport (EPSC)
Time Latitude Longitude Altitude Speed Heading
2026-05-07 18:37 51.10945 16.87723 400 ft 0 kts 25°
2026-05-07 18:47 51.10935 16.87715 400 ft 2 kts 27°
2026-05-07 18:47 51.10921 16.87705 401 ft 2 kts 25°
2026-05-07 18:47 51.10911 16.87697 401 ft 0 kts 26°
2026-05-07 18:47 51.10898 16.87691 401 ft 2 kts 354°
2026-05-07 18:48 51.10884 16.87699 401 ft 2 kts 322°
2026-05-07 18:48 51.10876 16.87712 401 ft 0 kts 297°
2026-05-07 18:48 51.10873 16.87723 401 ft 1 kts 294°
2026-05-07 18:50 51.10883 16.87694 402 ft 7 kts 296°
2026-05-07 18:50 51.10934 16.87528 401 ft 14 kts 296°
2026-05-07 18:50 51.10933 16.87415 403 ft 8 kts 219°
2026-05-07 18:50 51.10853 16.87354 403 ft 2 kts 209°
2026-05-07 18:51 51.10852 16.87352 403 ft 0 kts 210°
2026-05-07 18:51 51.10848 16.87349 403 ft 0 kts 212°
2026-05-07 18:51 51.10844 16.87344 403 ft 0 kts 222°
2026-05-07 18:51 51.10853 16.87257 403 ft 16 kts 299°
2026-05-07 18:52 51.10896 16.87126 403 ft 10 kts 291°
2026-05-07 18:52 51.10937 16.86984 403 ft 16 kts 295°
2026-05-07 18:52 51.10979 16.86835 403 ft 13 kts 291°
2026-05-07 18:52 51.10984 16.86813 403 ft 0 kts 289°
2026-05-07 18:57 51.11000 16.86746 401 ft 8 kts 291°
2026-05-07 18:57 51.10990 16.86692 400 ft 12 kts 229°
2026-05-07 18:57 51.10970 16.86670 400 ft 0 kts 207°
2026-05-07 18:58 51.10968 16.86668 400 ft 3 kts 207°
2026-05-07 18:58 51.10866 16.86653 402 ft 22 kts 139°
2026-05-07 18:59 51.10755 16.86991 405 ft 47 kts 116°
2026-05-07 18:59 51.10592 16.87522 405 ft 58 kts 115°
2026-05-07 18:59 51.10418 16.88091 403 ft 58 kts 116°
2026-05-07 18:59 51.10239 16.88677 398 ft 56 kts 116°
2026-05-07 19:00 51.10079 16.89180 397 ft 44 kts 117°
2026-05-07 19:00 51.10009 16.89386 400 ft 8 kts 90°
2026-05-07 19:00 51.10030 16.89381 399 ft 7 kts 287°
2026-05-07 19:00 51.10045 16.89308 399 ft 0 kts 298°
2026-05-07 19:01 51.10046 16.89305 399 ft 0 kts 297°
2026-05-07 19:01 51.10048 16.89297 399 ft 0 kts 297°
2026-05-07 19:01 51.10078 16.89204 397 ft 44 kts 297°
2026-05-07 19:01 51.10369 16.88251 401 ft 142 kts 295°
2026-05-07 19:02 51.10909 16.86590 795 ft 187 kts 303°
2026-05-07 19:02 51.11626 16.84613 1435 ft 230 kts 301°
2026-05-07 19:02 51.12383 16.82217 2038 ft 240 kts 296°
2026-05-07 19:02 51.13018 16.79860 2519 ft 215 kts 296°
2026-05-07 19:03 51.13649 16.77660 3053 ft 231 kts 297°
2026-05-07 19:03 51.14351 16.75311 3568 ft 235 kts 297°
2026-05-07 19:03 51.15058 16.72972 4303 ft 237 kts 296°
2026-05-07 19:03 51.15785 16.70559 5072 ft 253 kts 296°
2026-05-07 19:04 51.16562 16.67992 5826 ft 263 kts 296°
2026-05-07 19:04 51.17362 16.65344 6597 ft 267 kts 295°
2026-05-07 19:04 51.18167 16.62674 7360 ft 271 kts 295°
2026-05-07 19:04 51.19070 16.60045 8114 ft 276 kts 305°
2026-05-07 19:05 51.20547 16.58074 8871 ft 284 kts 335°
2026-05-07 19:05 51.22501 16.57629 9629 ft 295 kts
2026-05-07 19:05 51.24418 16.58843 10396 ft 301 kts 31°
2026-05-07 19:05 51.26194 16.60640 11156 ft 305 kts 31°
2026-05-07 19:06 51.28017 16.62382 11913 ft 308 kts 30°
2026-05-07 19:06 51.31902 16.65899 13425 ft 340 kts 29°
2026-05-07 19:06 51.34027 16.67787 14190 ft 357 kts 28°
2026-05-07 19:07 51.36149 16.70000 14948 ft 372 kts 40°
2026-05-07 19:07 51.37900 16.73117 15713 ft 383 kts 58°
2026-05-07 19:07 51.39185 16.76852 16491 ft 393 kts 65°
2026-05-07 19:07 51.40413 16.80854 17244 ft 404 kts 63°
2026-05-07 19:08 51.42020 16.84548 17991 ft 415 kts 47°
2026-05-07 19:08 51.44390 16.87279 18763 ft 423 kts 25°
2026-05-07 19:08 51.47170 16.88837 19547 ft 430 kts 15°
2026-05-07 19:08 51.50069 16.90153 20331 ft 436 kts 15°
2026-05-07 19:09 51.53007 16.91525 21122 ft 442 kts 16°
2026-05-07 19:09 51.55936 16.92926 21901 ft 446 kts 16°
2026-05-07 19:09 51.58924 16.94367 22698 ft 450 kts 16°
2026-05-07 19:09 51.61945 16.95829 23507 ft 454 kts 16°
2026-05-07 19:10 51.64978 16.97267 24301 ft 456 kts 14°
2026-05-07 19:10 51.68066 16.98092 25065 ft 456 kts
2026-05-07 19:10 51.71260 16.98049 25812 ft 456 kts 352°
2026-05-07 19:10 51.74357 16.97053 26012 ft 466 kts 340°
2026-05-07 19:11 51.77471 16.95227 26021 ft 483 kts 335°
2026-05-07 19:11 51.80659 16.93175 26017 ft 500 kts 335°
2026-05-07 19:11 51.83919 16.91106 26021 ft 508 kts 336°
2026-05-07 19:11 51.87253 16.89025 26023 ft 507 kts 336°
2026-05-07 19:12 51.90510 16.86992 26023 ft 506 kts 336°
2026-05-07 19:12 51.93792 16.84927 26024 ft 504 kts 336°
2026-05-07 19:12 51.97087 16.82845 26023 ft 503 kts 336°
2026-05-07 19:12 52.00331 16.80798 26026 ft 501 kts 336°
2026-05-07 19:13 52.03598 16.78734 26025 ft 501 kts 336°
2026-05-07 19:13 52.06866 16.76668 26029 ft 501 kts 336°
2026-05-07 19:13 52.10070 16.74410 26027 ft 501 kts 332°
2026-05-07 19:13 52.13112 16.71827 26028 ft 497 kts 327°
2026-05-07 19:14 52.15976 16.68714 26035 ft 494 kts 321°
2026-05-07 19:14 52.18727 16.65284 26034 ft 494 kts 319°
2026-05-07 19:14 52.21413 16.61875 26035 ft 494 kts 320°
2026-05-07 19:14 52.24151 16.58408 26032 ft 493 kts 320°
2026-05-07 19:15 52.26900 16.54914 26037 ft 493 kts 320°
2026-05-07 19:15 52.29569 16.51502 26037 ft 492 kts 320°
2026-05-07 19:15 52.32266 16.48037 26035 ft 491 kts 320°
2026-05-07 19:15 52.34946 16.44583 26040 ft 491 kts 320°
2026-05-07 19:16 52.37648 16.41094 26038 ft 491 kts 320°
2026-05-07 19:16 52.40337 16.37617 26043 ft 491 kts 320°
2026-05-07 19:16 52.42999 16.34167 26041 ft 490 kts 319°
2026-05-07 19:16 52.45682 16.30679 26042 ft 489 kts 320°
2026-05-07 19:17 52.48341 16.27217 26042 ft 490 kts 320°
2026-05-07 19:17 52.51001 16.23756 26042 ft 489 kts 320°
2026-05-07 19:17 52.53643 16.20314 26042 ft 489 kts 320°
2026-05-07 19:17 52.56319 16.16819 26046 ft 488 kts 320°
2026-05-07 19:18 52.58984 16.13320 26047 ft 488 kts 320°
2026-05-07 19:18 52.61574 16.09910 26050 ft 487 kts 320°
2026-05-07 19:18 52.64210 16.06436 26055 ft 486 kts 321°
2026-05-07 19:18 52.66888 16.02903 25964 ft 488 kts 321°
2026-05-07 19:19 52.69507 15.99442 25456 ft 487 kts 321°
2026-05-07 19:19 52.72171 15.95919 24905 ft 477 kts 321°
2026-05-07 19:19 52.74723 15.92537 24363 ft 470 kts 321°
2026-05-07 19:19 52.77237 15.89201 23808 ft 465 kts 322°
2026-05-07 19:20 52.79826 15.85942 23239 ft 461 kts 324°
2026-05-07 19:20 52.82458 15.83095 22683 ft 457 kts 331°
2026-05-07 19:20 52.85326 15.80716 22121 ft 454 kts 335°
2026-05-07 19:20 52.88173 15.78558 21409 ft 452 kts 335°
2026-05-07 19:21 52.90990 15.76425 20622 ft 445 kts 335°
2026-05-07 19:21 52.93814 15.74281 19829 ft 438 kts 335°
2026-05-07 19:21 52.96543 15.72222 19050 ft 431 kts 335°
2026-05-07 19:21 52.99256 15.70179 18279 ft 427 kts 335°
2026-05-07 19:22 53.01982 15.68191 17513 ft 423 kts 337°
2026-05-07 19:22 53.04718 15.66619 16761 ft 419 kts 342°
2026-05-07 19:22 53.07507 15.65345 15999 ft 414 kts 344°
2026-05-07 19:22 53.10278 15.64109 15239 ft 410 kts 344°
2026-05-07 19:23 53.12989 15.62870 14488 ft 404 kts 343°
2026-05-07 19:23 53.15677 15.61642 13738 ft 397 kts 344°
2026-05-07 19:23 53.18356 15.60455 12996 ft 390 kts 346°
2026-05-07 19:23 53.20969 15.59307 12241 ft 389 kts 346°
2026-05-07 19:24 53.23509 15.57869 11486 ft 384 kts 338°
2026-05-07 19:24 53.25897 15.56043 10741 ft 380 kts 336°
2026-05-07 19:24 53.28263 15.54178 10141 ft 372 kts 335°
2026-05-07 19:24 53.30417 15.51731 10067 ft 369 kts 316°
2026-05-07 19:25 53.31976 15.48253 10087 ft 377 kts 305°
2026-05-07 19:25 53.33334 15.44839 10075 ft 334 kts 306°
2026-05-07 19:25 53.34564 15.41819 10082 ft 296 kts 306°
2026-05-07 19:25 53.35689 15.39053 10095 ft 283 kts 306°
2026-05-07 19:26 53.36820 15.36267 10077 ft 288 kts 306°
2026-05-07 19:26 53.37947 15.33519 10076 ft 286 kts 307°
2026-05-07 19:26 53.39146 15.30767 9785 ft 291 kts 308°
2026-05-07 19:26 53.40333 15.28033 9345 ft 288 kts 307°
2026-05-07 19:27 53.41513 15.25291 8792 ft 290 kts 308°
2026-05-07 19:27 53.42694 15.22543 8177 ft 293 kts 308°
2026-05-07 19:27 53.43889 15.19754 7554 ft 295 kts 308°
2026-05-07 19:27 53.45088 15.16948 6869 ft 288 kts 308°
2026-05-07 19:28 53.46249 15.14228 6061 ft 284 kts 308°
2026-05-07 19:28 53.47392 15.11598 5243 ft 281 kts 311°
2026-05-07 19:28 53.48635 15.09079 4282 ft 283 kts 312°
2026-05-07 19:28 53.49593 15.06199 3482 ft 283 kts 290°
2026-05-07 19:29 53.50142 15.03145 3335 ft 254 kts 297°
2026-05-07 19:29 53.51097 15.00950 3336 ft 219 kts 323°
2026-05-07 19:29 53.52184 14.99305 3342 ft 208 kts 318°
2026-05-07 19:29 53.53185 14.97700 3462 ft 186 kts 323°
2026-05-07 19:30 53.54102 14.96303 3488 ft 170 kts 323°
2026-05-07 19:30 53.55060 14.94844 3513 ft 206 kts 322°
2026-05-07 19:30 53.56211 14.93146 3481 ft 231 kts 323°
2026-05-07 19:30 53.57480 14.91289 3478 ft 242 kts 322°
2026-05-07 19:31 53.58608 14.89233 3482 ft 237 kts 312°
2026-05-07 19:31 53.59613 14.87060 3487 ft 236 kts 311°
2026-05-07 19:31 53.60651 14.84873 3489 ft 236 kts 318°
2026-05-07 19:31 53.61855 14.83038 3488 ft 234 kts 322°
2026-05-07 19:32 53.63048 14.81115 3462 ft 237 kts 319°
2026-05-07 19:32 53.64180 14.79088 3239 ft 236 kts 316°
2026-05-07 19:32 53.65329 14.77144 2928 ft 230 kts 329°
2026-05-07 19:32 53.66779 14.76414 2672 ft 214 kts
2026-05-07 19:33 53.68181 14.77162 2688 ft 211 kts 31°
2026-05-07 19:33 53.69373 14.78585 2684 ft 210 kts 45°
2026-05-07 19:33 53.70136 14.80654 2625 ft 212 kts 72°
2026-05-07 19:33 53.70224 14.83154 2589 ft 213 kts 96°
2026-05-07 19:34 53.69712 14.85511 2585 ft 220 kts 119°
2026-05-07 19:34 53.68581 14.87308 2546 ft 230 kts 148°
2026-05-07 19:34 53.67036 14.88022 2494 ft 234 kts 174°
2026-05-07 19:34 53.65412 14.88053 2486 ft 236 kts 177°
2026-05-07 19:35 53.63768 14.88068 2487 ft 234 kts 176°
2026-05-07 19:35 53.62133 14.88102 2488 ft 236 kts 176°
2026-05-07 19:35 53.60493 14.88131 2488 ft 235 kts 176°
2026-05-07 19:35 53.58870 14.88373 2486 ft 233 kts 163°
2026-05-07 19:36 53.57267 14.88904 2483 ft 236 kts 174°
2026-05-07 19:36 53.55617 14.88928 2486 ft 235 kts 178°
2026-05-07 19:36 53.53989 14.88899 2490 ft 236 kts 178°
2026-05-07 19:36 53.52322 14.88874 2489 ft 236 kts 178°
2026-05-07 19:37 53.50691 14.88849 2487 ft 235 kts 178°
2026-05-07 19:37 53.49044 14.88825 2483 ft 235 kts 178°
2026-05-07 19:37 53.47388 14.88822 2486 ft 235 kts 174°
2026-05-07 19:37 53.45882 14.89536 2490 ft 219 kts 146°
2026-05-07 19:38 53.44652 14.90925 2480 ft 205 kts 140°
2026-05-07 19:38 53.43476 14.92315 2479 ft 206 kts 141°
2026-05-07 19:38 53.42431 14.93882 2484 ft 200 kts 119°
2026-05-07 19:38 53.42071 14.96053 2483 ft 195 kts 84°
2026-05-07 19:39 53.42565 14.98096 2479 ft 189 kts 52°
2026-05-07 19:39 53.43386 14.99800 2480 ft 188 kts 51°
2026-05-07 19:39 53.44232 15.01540 2389 ft 186 kts 50°
2026-05-07 19:39 53.44998 15.03125 2255 ft 167 kts 51°
2026-05-07 19:40 53.45739 15.04630 2242 ft 166 kts 50°
2026-05-07 19:40 53.46480 15.06147 2242 ft 166 kts 50°
2026-05-07 19:40 53.47233 15.07617 2241 ft 166 kts 43°
2026-05-07 19:40 53.48301 15.08338 2250 ft 172 kts
2026-05-07 19:41 53.49425 15.07642 2244 ft 176 kts 324°
2026-05-07 19:41 53.50246 15.06111 2249 ft 177 kts 315°
2026-05-07 19:41 53.51034 15.04560 2207 ft 173 kts 316°
2026-05-07 19:41 53.51841 15.03006 1976 ft 173 kts 316°
2026-05-07 19:42 53.52588 15.01563 1746 ft 153 kts 317°
2026-05-07 19:42 53.53241 15.00306 1518 ft 134 kts 317°
2026-05-07 19:42 53.53819 14.99192 1348 ft 122 kts 317°
2026-05-07 19:42 53.54406 14.98066 1228 ft 133 kts 316°
2026-05-07 19:43 53.55018 14.96886 994 ft 129 kts 315°
2026-05-07 19:43 53.55609 14.95745 835 ft 128 kts 315°
2026-05-07 19:43 53.56168 14.94660 623 ft 121 kts 314°
2026-05-07 19:43 53.56707 14.93637 483 ft 122 kts 313°
2026-05-07 19:44 53.57259 14.92568 351 ft 117 kts 314°
2026-05-07 19:44 53.57810 14.91509 200 ft 124 kts 313°
2026-05-07 19:44 53.58341 14.90475 135 ft 97 kts 312°
2026-05-07 19:44 53.58544 14.90087 133 ft 21 kts 311°
2026-05-07 19:45 53.58654 14.89879 131 ft 15 kts 312°
2026-05-07 19:45 53.58747 14.89692 128 ft 34 kts 310°
2026-05-07 19:45 53.58907 14.89377 125 ft 31 kts 310°
2026-05-07 19:45 53.59032 14.89138 121 ft 18 kts 324°
2026-05-07 19:46 53.59105 14.89159 123 ft 6 kts 39°
2026-05-07 19:46 53.59129 14.89193 124 ft 2 kts 41°
2026-05-07 19:46 53.59143 14.89214 124 ft 0 kts 41°
2026-05-07 19:48 53.59157 14.89236 124 ft 9 kts 41°
2026-05-07 19:48 53.59217 14.89338 127 ft 8 kts 48°
2026-05-07 19:48 53.59242 14.89383 129 ft 0 kts 48°
2026-05-07 19:48 53.59245 14.89389 130 ft 0 kts 47°
2026-05-07 19:49 53.59247 14.89392 130 ft 0 kts 46°